This demonstration page uses our WeatherBlox Daily Observations layout. Learn more.

Left ArrowRight Arrow

Hourly Observations for December 7, 2022

Temp ( °F °C ) Dew Point ( °F °C ) Humidity (%) Winds ( mph kmh ) Pressure ( in mb ) Visibility ( mi km ) Precip ( " mm )
12:52 am 00:52 Partly Cloudy 22 -5.6 19 -7.2 88 88 SW 3 6 30.14 1021 10 16 0.00 0.00
1:52 am 01:52 Partly Cloudy 24 -4.4 20 -6.7 84 84 S 3 6 30.13 1020 10 16 0.00 0.00
2:52 am 02:52 Mostly Cloudy 24 -4.4 20 -6.7 84 84 SE 5 7 30.15 1021 10 16 0.00 0.00
3:52 am 03:52 Partly Cloudy 23 -5 19 -7.2 84 84 SSE 6 9 30.15 1021 10 16 0.00 0.00
4:52 am 04:52 Mostly Clear 24 -4.4 20 -6.7 84 84 SSE 8 13 30.15 1021 10 16 0.00 0.00
5:52 am 05:52 Mostly Clear 24 -4.4 20 -6.7 84 84 SSE 7 11 30.18 1022 10 16 0.00 0.00
6:52 am 06:52 Mostly Clear 23 -5 19 -7.2 84 84 SE 8 13 30.19 1022 10 16 0.00 0.00
7:52 am 07:52 Mostly Sunny 25 -3.9 21 -6.1 85 85 SSE 8 13 30.22 1024 10 16 0.00 0.00
8:52 am 08:52 Mostly Sunny 28 -2.2 23 -5 81 81 Calm 30.26 1025 10 16 0.00 0.00
9:52 am 09:52 Mostly Sunny 34 1.1 24 -4.4 67 67 Calm 30.29 1026 10 16 0.00 0.00
10:52 am 10:52 Mostly Sunny 37 2.8 23 -5 56 56 NW 8 13 30.31 1026 9 14 0.00 0.00
11:52 am 11:52 Mostly Sunny 35 1.7 21 -6.1 56 56 N 17 28 30.31 1027 10 16 0.00 0.00
12:52 pm 12:52 Mostly Sunny 34 1.1 20 -6.7 56 56 N 20 31 30.32 1027 10 16 0.00 0.00
1:52 pm 13:52 Mostly Sunny 35 1.7 20 -6.7 54 54 N 15 24 30.31 1027 10 16 0.00 0.00
2:52 pm 14:52 Mostly Sunny 37 2.8 21 -6.1 52 52 N 12 19 30.33 1027 10 16 0.00 0.00
3:52 pm 15:52 Partly Cloudy 35 1.7 22 -5.6 58 58 NNE 12 19 30.36 1028 10 16 0.00 0.00
4:52 pm 16:52 Partly Cloudy 30 -1.1 21 -6.1 69 69 N 12 19 30.38 1029 10 16 0.00 0.00
5:52 pm 17:52 Partly Cloudy 26 -3.3 19 -7.2 74 74 N 6 9 30.39 1029 10 16 0.00 0.00
6:52 pm 18:52 Partly Cloudy 23 -5 18 -7.8 81 81 N 8 13 30.39 1029 10 16 0.00 0.00
7:52 pm 19:52 Partly Cloudy 23 -5 18 -7.8 81 81 N 8 13 30.40 1029 10 16 0.00 0.00
8:52 pm 20:52 Partly Cloudy 23 -5 18 -7.8 81 81 N 7 11 30.39 1029 10 16 0.00 0.00
9:52 pm 21:52 Partly Cloudy 21 -6.1 16 -8.9 80 80 N 7 11 30.40 1029 10 16 0.00 0.00
10:52 pm 22:52 Mostly Cloudy 20 -6.7 15 -9.4 81 81 N 8 13 30.39 1029 10 16 0.00 0.00
11:52 pm 23:52 Mostly Cloudy 19 -7.2 15 -9.4 84 84 N 8 13 30.39 1029 10 16 0.00 0.00

Powered by AerisWeather